Voltar ao catálogo

COSMOS 1375 DEB

AtivoLEO
NORAD 17104·DEBRIS·🇷🇺 Russia

Lançado Jun 6, 1982 de Plesetsk Cosmodrome

Loading…

Próximas Passagens (próximas 24 horas)

TLE

AtualizadoSource: Space-Track

Época: Sep 14, 2026, 08:16 UTC

1 17104U 82055AF  26257.34451149  .00000146  00000-0  23201-3 0  9998
2 17104  65.8331 290.9463 0045163 267.3760 104.9464 13.76041106 50411

Acompanhe COSMOS 1375 DEB em tempo real com AllMySat

Download on the App Store